LRSM Weather Reports


time (UTC)temp
F
wind
direction
speed
knots
gust
knots
rain 1hr
in
rain 24hr
in
rain mn
in
humidity
%
barometer
mb
20260504214832 54 210 6.1 0.0 0.00 0.00 0.00 54 1016.0
20260504213348 54 210 6.1 0.0 0.00 0.00 0.00 54 1016.0
20260504211832 52 210 6.1 0.0 0.00 0.00 0.00 62 1016.0
20260504210332 52 210 6.1 0.0 0.00 0.00 0.00 62 1016.0
20260504204832 55 220 5.2 0.0 0.00 0.00 0.00 51 1016.0
20260504203333 55 220 5.2 0.0 0.00 0.00 0.00 51 1016.0
20260504201831 57 200 5.2 0.0 0.00 0.00 0.00 48 1016.0
20260504200333 57 200 5.2 0.0 0.00 0.00 0.00 48 1016.0
20260504194832 59 230 0.9 0.0 0.00 0.00 0.00 45 1016.0
20260504193333 59 230 0.9 0.0 0.00 0.00 0.00 45 1016.0
20260504191832 61 220 2.6 0.0 0.00 0.00 0.00 42 1016.0
20260504190332 61 220 2.6 0.0 0.00 0.00 0.00 42 1016.0
20260504184832 66 240 1.7 0.0 0.00 0.00 0.00 35 1015.0
20260504183342 66 240 1.7 0.0 0.00 0.00 0.00 35 1015.0
20260504181832 68 280 2.6 0.0 0.00 0.00 0.00 33 1015.0
20260504180332 68 280 2.6 0.0 0.00 0.00 0.00 33 1015.0
20260504174832 70 270 4.3 0.0 0.00 0.00 0.00 31 1015.0
20260504173332 70 270 4.3 0.0 0.00 0.00 0.00 31 1015.0
20260504171832 75 270 4.3 0.0 0.00 0.00 0.00 25 1015.0
20260504170332 75 270 4.3 0.0 0.00 0.00 0.00 25 1015.0
20260504160333 79 310 5.2 0.0 0.00 0.00 0.00 18 1015.0
20260504150332 79 260 4.3 0.0 0.00 0.00 0.00 18 1015.0
20260504140333 79 340 6.1 0.0 0.00 0.00 0.00 18 1016.0
20260504130332 77 2.6 0.0 0.00 0.00 0.00 21 1017.0
20260504110333 75 30 5.2 0.0 0.00 0.00 0.00 24 1018.0
20260504100332 73 290 4.3 0.0 0.00 0.00 0.00 27 1019.0
20260504081832 66 330 4.3 0.0 0.00 0.00 0.00 35 1020.0
20260504080332 66 330 4.3 0.0 0.00 0.00 0.00 35 1020.0
20260504070333 63 0.9 0.0 0.00 0.00 0.00 45 1020.0
20260504050342 50 0.9 0.0 0.00 0.00 0.00 62 1020.0
20260504044832 46 190 4.3 0.0 0.00 0.00 0.00 71 1019.0
20260504043332 46 190 4.3 0.0 0.00 0.00 0.00 71 1019.0
20260504041832 43 210 4.3 0.0 0.00 0.00 0.00 76 1019.0
20260504040332 43 210 4.3 0.0 0.00 0.00 0.00 76 1019.0
20260504034833 41 210 2.6 0.0 0.00 0.00 0.00 76 1019.0
20260504033332 41 210 2.6 0.0 0.00 0.00 0.00 76 1019.0
20260504031832 39 210 2.6 0.0 0.00 0.00 0.00 81 1019.0
20260504030452 39 210 2.6 0.0 0.00 0.00 0.00 81 1019.0
20260504024833 39 180 2.6 0.0 0.00 0.00 0.00 81 1019.0
20260504023332 39 180 2.6 0.0 0.00 0.00 0.00 81 1019.0
20260504021832 41 170 2.6 0.0 0.00 0.00 0.00 76 1019.0
20260504020332 41 170 2.6 0.0 0.00 0.00 0.00 76 1019.0
20260504014832 43 0 0.0 0.0 0.00 0.00 0.00 71 1019.0
20260504013337 43 0 0.0 0.0 0.00 0.00 0.00 71 1019.0
20260504011951 46 210 5.2 0.0 0.00 0.00 0.00 66 1019.0
20260504010332 46 210 5.2 0.0 0.00 0.00 0.00 66 1019.0
20260504004951 46 210 5.2 0.0 0.00 0.00 0.00 66 1019.0
20260504003332 46 210 5.2 0.0 0.00 0.00 0.00 66 1019.0
20260504001832 45 200 4.3 0.0 0.00 0.00 0.00 71 1019.0
20260504000333 45 200 4.3 0.0 0.00 0.00 0.00 71 1019.0
20260503234912 46 210 5.2 0.0 0.00 0.00 0.00 66 1019.0
20260503233332 46 210 5.2 0.0 0.00 0.00 0.00 66 1019.0
20260503231836 46 190 2.6 0.0 0.00 0.00 0.00 66 1019.0
20260503230344 46 190 2.6 0.0 0.00 0.00 0.00 66 1019.0
20260503224832 46 180 4.3 0.0 0.00 0.00 0.00 66 1019.0
20260503223344 46 180 4.3 0.0 0.00 0.00 0.00 66 1019.0
20260503221849 48 200 6.1 0.0 0.00 0.00 0.00 66 1019.0
20260503220414 48 200 6.1 0.0 0.00 0.00 0.00 66 1019.0